• In Kazakhstan
  • List of Countries
  • For 7 days
  • Water Temperature
  • Satellite Maps
  • Weather Map
  • News
  • Weather Widgets
  • user-avatar
    Login

    Hourly Weather Rockford

    Today, 22 November, Wednesday

    Time Temperature Precipitation Wind Pressure Humidity
    00:00 -8°C° 0 mm 4 mps 744 mmHg 46%
    01:00 -8°C° 0 mm 4 mps 744 mmHg 47%
    02:00 -8°C° 0 mm 4 mps 744 mmHg 47%
    03:00 -7°C° 0 mm 3 mps 744 mmHg 48%
    04:00 -7°C° 0 mm 3 mps 745 mmHg 49%
    05:00 -7°C° 0 mm 2 mps 745 mmHg 50%
    06:00 -7°C° 0 mm 1 mps 746 mmHg 53%
    07:00 -6°C° 0 mm 1 mps 746 mmHg 51%
    08:00 -4°C° 0 mm 1 mps 746 mmHg 48%
    09:00 -4°C° 0 mm 1 mps 746 mmHg 46%
    10:00 -2°C° 0 mm 1 mps 745 mmHg 41%
    11:00 -3°C° 0 mm 2 mps 745 mmHg 37%
    12:00 -2°C° 0 mm 3 mps 745 mmHg 32%
    13:00 -1°C° 0 mm 3 mps 744 mmHg 31%
    14:00 -1°C° 0 mm 3 mps 743 mmHg 30%
    15:00 0°C° 0 mm 3 mps 743 mmHg 30%
    16:00 -1°C° 0 mm 3 mps 742 mmHg 32%
    17:00 -1°C° 0 mm 3 mps 742 mmHg 34%
    18:00 -2°C° 0 mm 3 mps 741 mmHg 37%
    19:00 -2°C° 0 mm 3 mps 741 mmHg 37%
    20:00 -2°C° 0 mm 3 mps 741 mmHg 37%
    21:00 -2°C° 0 mm 4 mps 741 mmHg 37%
    22:00 -2°C° 0 mm 4 mps 740 mmHg 38%
    23:00 -2°C° 0 mm 4 mps 740 mmHg 39%

    Tomorrow, 23 November, Thursday

    Time Temperature Precipitation Wind Pressure Humidity
    00:00 -2°C° 0 mm 4 mps 739 mmHg 40%
    01:00 -2°C° 0 mm 5 mps 739 mmHg 41%
    02:00 -2°C° 0 mm 5 mps 738 mmHg 42%
    03:00 -2°C° 0 mm 5 mps 737 mmHg 43%
    04:00 -2°C° 0 mm 5 mps 737 mmHg 47%
    05:00 -3°C° 0 mm 4 mps 737 mmHg 51%
    06:00 -4°C° 0 mm 3 mps 736 mmHg 55%
    07:00 -2°C° 0 mm 3 mps 737 mmHg 54%
    08:00 -2°C° 0 mm 3 mps 737 mmHg 52%
    09:00 -1°C° 0 mm 3 mps 737 mmHg 51%
    10:00 +1°C° 0 mm 3 mps 737 mmHg 49%
    11:00 +2°C° 0 mm 3 mps 736 mmHg 47%
    12:00 +5°C° 0 mm 2 mps 736 mmHg 46%
    13:00 +5°C° 0 mm 2 mps 736 mmHg 47%
    14:00 +6°C° 0 mm 2 mps 736 mmHg 49%
    15:00 +6°C° 0 mm 2 mps 735 mmHg 50%
    16:00 +5°C° 0 mm 2 mps 735 mmHg 56%
    17:00 +4°C° 0 mm 2 mps 735 mmHg 61%
    18:00 +2°C° 0 mm 2 mps 735 mmHg 67%
    19:00 +2°C° 0 mm 2 mps 735 mmHg 69%
    20:00 +2°C° 0 mm 2 mps 735 mmHg 71%
    21:00 +1°C° 0 mm 3 mps 735 mmHg 73%
    22:00 +1°C° 0 mm 3 mps 734 mmHg 74%
    23:00 +1°C° 0 mm 3 mps 734 mmHg 76%

    Day after tomorrow, 24 November, Friday

    Time Temperature Precipitation Wind Pressure Humidity
    00:00 +1°C° 0 mm 3 mps 734 mmHg 78%
    01:00 0°C° 0 mm 4 mps 733 mmHg 79%
    02:00 0°C° 0 mm 4 mps 733 mmHg 81%
    03:00 0°C° 0 mm 5 mps 732 mmHg 83%
    04:00 +1°C° 0 mm 5 mps 731 mmHg 86%
    05:00 +1°C° 0 mm 5 mps 731 mmHg 88%
    06:00 +2°C° 0 mm 5 mps 730 mmHg 90%
    07:00 +3°C° 0 mm 6 mps 730 mmHg 87%
    08:00 +4°C° 0 mm 6 mps 730 mmHg 84%
    09:00 +5°C° 0 mm 7 mps 729 mmHg 81%
    10:00 +8°C° 0 mm 7 mps 728 mmHg 74%
    11:00 +10°C° 0 mm 8 mps 728 mmHg 67%
    12:00 +12°C° 0 mm 8 mps 727 mmHg 60%
    13:00 +14°C° 0 mm 7 mps 726 mmHg 60%
    14:00 +14°C° 0 mm 7 mps 726 mmHg 59%
    15:00 +14°C° 0 mm 6 mps 726 mmHg 59%
    16:00 +13°C° 0 mm 5 mps 726 mmHg 67%
    17:00 +11°C° 0 mm 4 mps 727 mmHg 74%
    18:00 +10°C° 0 mm 3 mps 727 mmHg 81%
    19:00 +8°C° 0 mm 4 mps 728 mmHg 82%
    20:00 +8°C° 0 mm 4 mps 728 mmHg 83%
    21:00 +7°C° 0 mm 4 mps 729 mmHg 84%
    22:00 +7°C° 0 mm 4 mps 730 mmHg 80%
    23:00 +6°C° 0 mm 4 mps 730 mmHg 76%

    25 November, Saturday

    Time Temperature Precipitation Wind Pressure Humidity
    00:00 +6°C° 0 mm 4 mps 731 mmHg 71%
    01:00 +5°C° 0 mm 3 mps 731 mmHg 72%
    02:00 +4°C° 0 mm 3 mps 732 mmHg 74%
    03:00 +3°C° 0 mm 3 mps 733 mmHg 75%
    04:00 +3°C° 0 mm 3 mps 733 mmHg 75%
    05:00 +2°C° 0 mm 3 mps 734 mmHg 75%
    06:00 +2°C° 0 mm 3 mps 734 mmHg 76%
    07:00 +3°C° 0 mm 4 mps 735 mmHg 71%
    08:00 +3°C° 0 mm 5 mps 736 mmHg 66%
    09:00 +3°C° 0 mm 5 mps 736 mmHg 62%
    10:00 +5°C° 0 mm 6 mps 736 mmHg 57%
    11:00 +7°C° 0 mm 6 mps 737 mmHg 53%
    12:00 +8°C° 0 mm 6 mps 737 mmHg 49%
    13:00 +8°C° 0 mm 6 mps 737 mmHg 48%
    14:00 +8°C° 0 mm 6 mps 737 mmHg 47%
    15:00 +8°C° 0 mm 6 mps 737 mmHg 46%
    16:00 +6°C° 0 mm 5 mps 738 mmHg 51%
    17:00 +5°C° 0 mm 4 mps 738 mmHg 56%
    18:00 +3°C° 0 mm 3 mps 739 mmHg 61%
    19:00 +2°C° 0 mm 3 mps 739 mmHg 63%
    20:00 +2°C° 0 mm 3 mps 740 mmHg 65%
    21:00 +2°C° 0 mm 2 mps 740 mmHg 67%
    22:00 +2°C° 0 mm 2 mps 741 mmHg 69%
    23:00 +1°C° 0 mm 2 mps 741 mmHg 71%

    26 November, Sunday

    Time Temperature Precipitation Wind Pressure Humidity
    00:00 -1°C° 0 mm 2 mps 741 mmHg 74%
    01:00 -1°C° 0 mm 2 mps 741 mmHg 75%
    02:00 0°C° 0 mm 1 mps 742 mmHg 77%
    03:00 0°C° 0 mm 1 mps 742 mmHg 79%
    04:00 0°C° 0 mm 1 mps 742 mmHg 80%
    05:00 0°C° 0 mm 1 mps 742 mmHg 80%
    06:00 0°C° 0 mm 1 mps 742 mmHg 81%
    07:00 0°C° 0 mm 1 mps 742 mmHg 76%
    08:00 -1°C° 0 mm 2 mps 742 mmHg 71%
    09:00 +1°C° 0 mm 2 mps 743 mmHg 66%
    10:00 +2°C° 0 mm 3 mps 742 mmHg 61%
    11:00 +4°C° 0 mm 3 mps 742 mmHg 55%
    12:00 +5°C° 0 mm 4 mps 741 mmHg 50%
    13:00 +6°C° 0 mm 4 mps 740 mmHg 51%
    14:00 +6°C° 0 mm 4 mps 740 mmHg 52%
    15:00 +7°C° 0 mm 4 mps 739 mmHg 52%
    16:00 +6°C° 0 mm 4 mps 739 mmHg 58%
    17:00 +5°C° 0 mm 4 mps 738 mmHg 64%
    18:00 +4°C° 0 mm 4 mps 738 mmHg 70%
    19:00 +4°C° 0 mm 4 mps 738 mmHg 71%
    20:00 +4°C° 0 mm 4 mps 737 mmHg 73%
    21:00 +3°C° 0 mm 5 mps 737 mmHg 74%
    22:00 +3°C° 0 mm 5 mps 736 mmHg 73%
    23:00 +3°C° 0 mm 5 mps 736 mmHg 71%

    27 November, Monday

    Time Temperature Precipitation Wind Pressure Humidity
    00:00 +3°C° 0 mm 6 mps 735 mmHg 70%
    01:00 +3°C° 0 mm 6 mps 735 mmHg 69%
    02:00 +4°C° 0 mm 6 mps 734 mmHg 69%
    03:00 +4°C° 0 mm 6 mps 734 mmHg 68%
    04:00 +4°C° 0 mm 6 mps 733 mmHg 70%
    05:00 +4°C° 0 mm 6 mps 733 mmHg 72%
    06:00 +4°C° 0 mm 7 mps 732 mmHg 73%
    07:00 +5°C° 0 mm 7 mps 732 mmHg 72%
    08:00 +6°C° 0 mm 8 mps 731 mmHg 71%
    09:00 +6°C° 0 mm 8 mps 731 mmHg 70%
    10:00 +8°C° 0 mm 9 mps 730 mmHg 67%
    11:00 +10°C° 0 mm 9 mps 729 mmHg 63%
    12:00 +12°C° 0 mm 9 mps 729 mmHg 60%
    13:00 +12°C° 0 mm 9 mps 728 mmHg 60%
    14:00 +13°C° 0 mm 9 mps 727 mmHg 60%
    15:00 +15°C° 0 mm 9 mps 726 mmHg 59%
    16:00 +13°C° 0 mm 8 mps 726 mmHg 62%
    17:00 +13°C° 0 mm 8 mps 726 mmHg 65%
    18:00 +12°C° 0 mm 7 mps 726 mmHg 67%
    19:00 +13°C° 0 mm 8 mps 726 mmHg 67%
    20:00 +13°C° 0 mm 8 mps 725 mmHg 67%
    21:00 +15°C° 0 mm 8 mps 725 mmHg 67%
    22:00 +15°C° 0.1 mm 8 mps 725 mmHg 72%
    23:00 +14°C° 0.1 mm 7 mps 726 mmHg 77%
    Show more